Weather in Bokhto

Russia / Zabaykalsky Krai     51°03′46″N   118°10′04″E
temp.,
°C
wind,
m/s
gust,
m/s
humid.,
%
clouds,
%
prec.,
mm/h
press.,
hPa
HPBL,
m
7 march, sun
sun700:00−20w229819 0.0 102721
03:00−18w229742 0.0 102828
06:00−19w229936 0.0 102721
09:00−16w229218 0.0 102963
12:00−8nw23720 0.0 1027381
15:00−4w13670 0.0 1026699
18:00−7s228511 0.0 102543
21:00−14s23949 0.0 102629
8 march, mon
mon800:00−15s23920 0.0 102532
03:00−14s239328 0.0 102535
06:00−16s23953 0.0 102330
09:00−13s229335 0.0 102375
12:00−5sw2479100 0.0 1019329
15:00−2wsw258181 0.0 1017513
18:00−3w4118413 0.0 1016749
21:00−6wnw717717 0.0 10181175
9 march, tue
tue900:00−10nw614740 0.0 1020938
03:00−15wnw37830 0.0 1024153
06:00−18wnw22820 0.0 102823
09:00−16wnw22800 0.0 103163
12:00−8wnw23640 0.0 1031472
15:00−6w23580 0.0 1029731
18:00−8s22820 0.0 102745
21:00−14s238224 0.0 102824
10 march, wed
wed1000:00−14s2380100 0.0 102651
03:00−13s2385100 0.0 102458
06:00−13sw1289100 0.0 102320
09:00−11wnw229378 0.0 102475
12:00−2nw3116416 0.0 10231157
15:00−2nw610708 0.0 10231291
18:00−4wnw388255 0.1 1024465
21:00−10w128828 0.1 102721
11 march, thu
thu1100:00−11w12880 0.0 103021
03:00−12wsw11860 0.0 103021
06:00−13w118619 0.0 103221
09:00−10wsw118419 0.0 103330
12:00−3ssw137411 0.0 1032457
15:00−2s338524 0.0 1030412
18:00−4s349184 0.0 1030229
21:00−10s239658 0.0 103227